This is the latest recevied weather packets stored in our database for station/object KK7KRZ. If no packets are shown the sender has not sent any weather packets the latest 10 day(s).
| Time | Temp. | Humidity | Pressure | Rain* | Wind** | Luminosity | Snow |
|---|---|---|---|---|---|---|---|
| 1777946762 | 19.44° C | 71% | 1010.5 hPa | 0 mm | - | 19 W/m² | - |
| 1777946459 | 19.44° C | 71% | 1010.6 hPa | 0 mm | - | 19 W/m² | - |
| 1777946156 | 19.44° C | 71% | 1010.5 hPa | 0 mm | - | 20 W/m² | - |
| 1777945853 | 20° C | 70% | 1010.5 hPa | 0 mm | - | 21 W/m² | - |
| 1777945549 | 20° C | 71% | 1010.5 hPa | 0 mm | - | 22 W/m² | - |
| 1777945247 | 20° C | 70% | 1010.5 hPa | 0 mm | - | 23 W/m² | - |
| 1777944944 | 20.56° C | 69% | 1010.5 hPa | 0 mm | - | 23 W/m² | - |
| 1777944641 | 20.56° C | 70% | 1010.5 hPa | 0 mm | - | 24 W/m² | - |
| 1777944339 | 20.56° C | 70% | 1010.3 hPa | 0 mm | - | 25 W/m² | - |
| 1777944036 | 20.56° C | 69% | 1010.8 hPa | 0 mm | - | 26 W/m² | - |
| 1777943731 | 20.56° C | 69% | 1010.5 hPa | 0 mm | - | 26 W/m² | - |
| 1777943429 | 21.11° C | 69% | 1010.3 hPa | 0 mm | - | 27 W/m² | - |
| 1777943124 | 21.11° C | 69% | 1010.6 hPa | 0 mm | - | 28 W/m² | - |
| 1777942821 | 21.11° C | 68% | 1010.9 hPa | 0 mm | - | 29 W/m² | - |
| 1777942517 | 21.11° C | 68% | 1010.6 hPa | 0 mm | - | 32 W/m² | - |
| 1777942215 | 21.11° C | 68% | 1010.7 hPa | 0 mm | - | 30 W/m² | - |
| 1777941912 | 21.67° C | 68% | 1010.6 hPa | 0 mm | - | 30 W/m² | - |
| 1777941609 | 21.67° C | 67% | 1010.6 hPa | 0 mm | - | 32 W/m² | - |
| 1777941306 | 21.67° C | 66% | 1010.6 hPa | 0 mm | - | 32 W/m² | - |
| 1777941002 | 21.67° C | 67% | 1010.5 hPa | 0 mm | - | 34 W/m² | - |
| 1777940698 | 21.67° C | 67% | 1010.6 hPa | 0 mm | - | 35 W/m² | - |
| 1777940397 | 21.67° C | 67% | 1010.7 hPa | 0 mm | - | 47 W/m² | - |
| 1777940094 | 21.67° C | 68% | 1010.6 hPa | 0 mm | - | 46 W/m² | - |
| 1777939790 | 21.67° C | 66% | 1010.8 hPa | 0 mm | - | 40 W/m² | - |
| 1777939489 | 21.67° C | 65% | 1010.8 hPa | 0 mm | - | 38 W/m² | - |
* Rain latest hour (hover to see other rain measurements)
** Current wind speed in m/s (hover to see current wind gust speed)